Flag for U.S.A. Weather past 2 weeks in Winston-Salem, North Carolina, U.S.A.

Now
76 °F

Sunny.


Feels Like: 77 °F
Forecast: 69 / 81 °F
Wind: 6 mph from West

Location: Smith Reynolds Airport

Current Time: Jul 4, 2015 at 11:34:06 AM

Latest Report: Jul 4, 2015 at 10:54 AM


Visibility: 10 mi

Pressure: 29.97 "Hg

Humidity: 74%

Dew point: 67 °F

Location of Winston-SalemLocation

Historic Weather in Winston-Salem — Graph

°F

Winston-Salem temperature yesterday

Maximum temperature yesterday: 78 °F (at 5:54 PM)
Minimum temperature yesterday: 68 °F (at 4:54 AM)
Average temperature yesterday: 71 °F

Past Weeks' High & Low Weather Summary

 TemperatureHumidityPressure
High95 °F (Jun 23, 2:54 PM)97% (Jul 4, 1:54 AM)30.10 "Hg (Jul 4, 1:54 AM)
Low58 °F (Jun 29, 5:54 AM)4% (Jun 24, 5:54 PM)29.74 "Hg (Jun 27, 4:54 PM)
Average78 °F65%29.95 "Hg
* Reported Jun 19 9:54 AM — Jul 4 9:54 AM, Winston-Salem, Weather by CustomWeather, © 2015

Note: Actual official high and low records may vary slightly from our data, if they occured in-between our weather recording intervals... More about our weather records

Advertising

Winston-Salem weather history for previous 24 hours

 ConditionsComfort  
Time TempWeatherWind HumidityBarometerVisibility
9:54 AM
Sat, Jul 4
74 °FSunny.8 mph79%29.96 "Hg10 mi
8:54 AM73 °FSunny.8 mph81%29.95 "Hg10 mi
7:54 AM70 °FSunny.7 mph90%29.95 "Hg10 mi
6:54 AM69 °FPassing clouds.3 mph93%29.93 "Hg10 mi
5:54 AM68 °FClear.No wind93%29.92 "Hg10 mi
4:54 AM68 °FPartly cloudy.3 mph96%29.91 "Hg10 mi
3:54 AM69 °FPassing clouds.No wind93%29.91 "Hg10 mi
2:54 AM69 °FClear.5 mph93%29.90 "Hg10 mi
1:54 AM70 °FLow clouds.No wind97%29.91 "Hg9 mi
12:54 AM70 °FPartly cloudy.No wind93%29.92 "Hg10 mi
11:54 PM
Fri, Jul 3
70 °FPartly cloudy.No wind93%29.92 "Hg10 mi
10:54 PM71 °FLight rain. Mostly cloudy.3 mph93%29.92 "Hg10 mi
9:54 PM70 °FPassing clouds.No wind93%29.90 "Hg10 mi
9:02 PM70 °FLight rain. Fog.No wind93%29.92 "Hg3 mi
8:58 PM70 °FHeavy rain. Fog.No wind93%29.92 "Hg1 mi
7:54 PM73 °FThundershowers. Fog.3 mph90%29.89 "Hg2 mi
6:54 PM76 °FSunny.5 mph80%29.87 "Hg10 mi
5:54 PM78 °FPassing clouds.7 mph74%29.88 "Hg10 mi
4:54 PM76 °FPartly sunny.No wind80%29.89 "Hg10 mi
3:54 PM74 °FLight rain. Fog.7 mph88%29.90 "Hg6 mi
2:54 PM74 °FOvercast.3 mph85%29.92 "Hg10 mi
2:02 PM72 °FFog.7 mph93%29.96 "Hg4 mi
1:54 PM72 °FFog.7 mph91%29.93 "Hg2 mi
12:54 PM72 °FLight rain. Fog.No wind87%29.95 "Hg5 mi
11:54 AM72 °FMostly cloudy.6 mph84%29.95 "Hg10 mi
Weather by CustomWeather, © 2015

See weather overviewHow to use our weather pages